Home > Weather > Manhattan > Past weeks

Flag for USA Past Weather in Manhattan, Kansas, USA — Yesterday and Last 2 Weeks

Now
77 °F

Scattered clouds.


Feels Like: 79 °F
Forecast: 70 / 80 °F
Wind: 3 mph from Northwest

Location: Manhattan Municipal Airport

Current Time: Aug 29, 2016 at 8:39:36 PM

Latest Report: Aug 29, 2016 at 7:52 PM


Visibility: 10 mi

Pressure: 30.10 "Hg

Humidity: 74%

Dew Point: 68 °F

Location of ManhattanLocation

Past Weather in Manhattan — Graph

°F

Manhattan Temperature Yesterday

Maximum temperature yesterday: 90 °F (at 1:52 PM)
Minimum temperature yesterday: 69 °F (at 5:52 AM)
Average temperature yesterday: 80 °F

High & Low Weather Summary for the Past Weeks

 TemperatureHumidityPressure
High95 °F (Aug 17, 3:52 PM)97% (Aug 15, 6:52 AM)30.16 "Hg (Aug 15, 6:52 AM)
Low53 °F (Aug 21, 6:52 AM)37% (Aug 17, 2:52 PM)29.70 "Hg (Aug 19, 4:52 PM)
Average75 °F74%29.99 "Hg
* Reported Aug 14 6:52 PM — Aug 29 6:52 PM, Manhattan, Weather by CustomWeather, © 2016

Note: Actual official high and low records may vary slightly from our data, if they occured in-between our weather recording intervals... More about our weather records

Advertising

Manhattan Weather History for the Previous 24 Hours

Scroll right to see more
 ConditionsComfort  
Time TempWeatherWind HumidityBarometerVisibility
6:52 PM
Mon, Aug 29
82 °FThundershowers. Scattered clouds.17 mph65%30.09 "Hg10 mi
5:52 PM87 °FPassing clouds.7 mph61%30.07 "Hg10 mi
4:52 PM87 °FSunny.6 mph57%30.07 "Hg10 mi
3:52 PM89 °FSunny.9 mph53%30.07 "Hg10 mi
2:52 PM90 °FSunny.9 mph52%30.09 "Hg10 mi
1:52 PM86 °FBroken clouds.No wind61%30.12 "Hg10 mi
12:52 PM87 °FScattered clouds.6 mph63%30.14 "Hg10 mi
11:52 AM86 °FSunny.6 mph67%30.16 "Hg10 mi
10:52 AM82 °FSunny.No wind74%30.16 "Hg10 mi
9:52 AM78 °FSunny.No wind79%30.15 "Hg10 mi
8:52 AM76 °FSunny.No wind82%30.13 "Hg10 mi
7:52 AM72 °FClear.No wind93%30.12 "Hg8 mi
6:52 AM70 °FClear.No wind97%30.11 "Hg7 mi
5:52 AM71 °FClear.No wind93%30.08 "Hg10 mi
4:52 AM73 °FClear.No wind90%30.07 "Hg10 mi
3:52 AM71 °FClear.No wind93%30.08 "Hg9 mi
2:52 AM71 °FClear.No wind96%30.08 "Hg9 mi
1:52 AM72 °FClear.No wind93%30.08 "Hg10 mi
12:52 AM73 °FClear.5 mph90%30.08 "Hg10 mi
11:52 PM
Sun, Aug 28
73 °FClear.5 mph88%30.10 "Hg10 mi
10:52 PM74 °FClear.5 mph88%30.09 "Hg10 mi
9:52 PM76 °FClear.5 mph82%30.07 "Hg10 mi
8:52 PM77 °FPassing clouds.7 mph82%30.06 "Hg10 mi
Weather by CustomWeather, © 2016

See weather overviewHow to use our weather pages